Content
SEND FEEDBACK

Daily
Averages
Monthly
Summary
United States of America

GORMAN, TEXAS


Home > North America > United States > Texas
Elevation: 427 meters     Latitude: 32 13N     Longitude: 098 40W

WEATHER
 
SELECT A DAY
Number of Records: 241,979;   Date Range: 10/5/04 - 12/24/14
 
SHARE

PRINT THIS DATA

[ ← Previous Day ]
WEATHER ALMANAC - 23 JANUARY, 2013
[ Next Day → ]
[ °F ]   °C
Weather ElementAverageHighLow
Temperature15.9 °C25 °C (3:35 pm)8 °C (7:15 am)
Dewpoint8.8 °C11 °C (8:15 pm)7 °C (12:35 am)
Humidity64.8 %93 % (7:15 am)36 % (2:55 pm)
Barometer1023 hPa1025.4 hPa (9:55 am)1020.7 hPa (5:55 pm)
Wind Speed15.6 km/h25.9 km/h (9:35 pm)
Wind Gust37 km/h (11:35 pm)
Weather ElementAverage
Visibility16.1 km
Wind DirectionSSW (189.3 °)

Weather ElementTotal
Precipitation---
Heating Degree Days1.8 (Base 18.3)
Growing Degree Days6.5 (Base 10)
Averaged from 70 records on 23 January, 2013
WEATHER CONDITIONS BREAKOUT
WIND DIRECTION BREAKOUT
WEATHER BY HOUR - 23 JANUARY, 2013
[ °F ]   °C
Local TimeTemperatureDewpointHumidityBarometerVisibilityWind DirectionWind SpeedGust SpeedPrecipitationEventsConditions
12:35 AM10 °C7 °C82 %1023.4 hPa16.1 kmSSW (200°)11.1 km/hClear
12:55 AM10 °C7 °C82 %1023.4 hPa16.1 kmSSW (210°)9.3 km/hClear
1:15 AM10 °C7 °C82 %1023.4 hPa16.1 kmSSW (200°)11.1 km/hClear
1:35 AM10 °C7 °C82 %1023.4 hPa16.1 kmSouth (190°)13 km/hClear
1:55 AM11 °C7 °C76 %1023.4 hPa16.1 kmSouth (190°)16.7 km/hClear
2:15 AM12 °C7 °C72 %1023 hPa16.1 kmSouth (190°)18.5 km/hClear
2:35 AM12 °C7 °C72 %1023 hPa16.1 kmSSW (200°)22.2 km/hClear
2:55 AM12 °C7 °C72 %1023.4 hPa16.1 kmSSW (200°)16.7 km/hClear
3:15 AM12 °C7 °C72 %1023.4 hPa16.1 kmSSW (200°)13 km/hClear
3:35 AM11 °C7 °C76 %1023.4 hPa16.1 kmSSW (200°)18.5 km/hClear
3:55 AM11 °C7 °C76 %1023.4 hPa16.1 kmSSW (200°)16.7 km/hClear
4:15 AM11 °C7 °C76 %1023.4 hPa16.1 kmSSW (200°)18.5 km/hClear
4:35 AM10 °C7 °C82 %1023.4 hPa16.1 kmSSW (200°)22.2 km/hClear
4:55 AM10 °C7 °C82 %1023 hPa16.1 kmSSW (200°)22.2 km/h33.3 km/hClear
5:15 AM10 °C7 °C82 %1023 hPa16.1 kmSSW (200°)20.4 km/hClear
5:35 AM10 °C7 °C82 %1023.4 hPa16.1 kmSSW (200°)14.8 km/hClear
5:55 AM9 °C7 °C87 %1024 hPa16.1 kmCalmClear
6:15 AM9 °C7 °C87 %1024.4 hPa16.1 kmCalmClear
6:55 AM9 °C7 °C87 %1024.7 hPa16.1 kmCalmClear
7:15 AM8 °C7 °C93 %1024.7 hPa16.1 kmCalmClear
7:35 AM9 °C7 °C87 %1024.7 hPa16.1 kmCalmClear
7:55 AM8 °C7 °C93 %1024.4 hPa16.1 kmSouth (170°)7.4 km/hClear
8:15 AM9 °C7 °C87 %1024.7 hPa16.1 kmSSE (150°)5.6 km/hClear
8:35 AM10 °C8 °C87 %1024.7 hPa16.1 kmSSE (160°)5.6 km/hClear
8:55 AM11 °C8 °C82 %1024.7 hPa16.1 kmSouth (190°)5.6 km/hClear
9:15 AM13 °C9 °C77 %1025.1 hPa16.1 kmSSW (210°)14.8 km/hClear
9:35 AM14 °C9 °C72 %1025.1 hPa16.1 kmSW (230°)13 km/hClear
9:55 AM15 °C9 °C67 %1025.4 hPa16.1 kmSSW (200°)18.5 km/hClear
10:15 AM16 °C9 °C63 %1025.4 hPa16.1 kmSW (220°)18.5 km/h29.6 km/hClear
10:35 AM17 °C9 °C59 %1025.4 hPa16.1 kmSSW (210°)18.5 km/h25.9 km/hClear
10:55 AM17 °C9 °C59 %1025.4 hPa16.1 kmSW (230°)16.7 km/h31.5 km/hClear
11:15 AM18 °C10 °C59 %1025.1 hPa16.1 kmSW (230°)18.5 km/h29.6 km/hClear
11:35 AM18 °C10 °C59 %1025.1 hPa16.1 kmSSW (210°)14.8 km/h27.8 km/hClear
11:55 AM19 °C10 °C56 %1024.7 hPa16.1 kmSW (230°)20.4 km/h31.5 km/hClear
12:15 PM20 °C10 °C52 %1024.4 hPa16.1 kmSSW (210°)20.4 km/h25.9 km/hClear
12:35 PM20 °C10 °C52 %1023.7 hPa16.1 kmSSW (210°)22.2 km/h35.2 km/hClear
12:55 PM21 °C10 °C49 %1023.4 hPa16.1 kmSSW (200°)16.7 km/h29.6 km/hClear
1:15 PM21 °C10 °C49 %1023 hPa16.1 kmSW (220°)16.7 km/hClear
1:35 PM22 °C10 °C46 %1022.7 hPa16.1 kmSSW (210°)18.5 km/h27.8 km/hClear
1:55 PM23 °C9 °C41 %1022.4 hPa16.1 kmSW (220°)18.5 km/hClear
2:15 PM23 °C8 °C38 %1022.4 hPa16.1 kmWSW (240°)18.5 km/h27.8 km/hClear
2:35 PM23 °C8 °C38 %1022.4 hPa16.1 kmWSW (240°)18.5 km/h29.6 km/hClear
2:55 PM24 °C8 °C36 %1022.4 hPa16.1 kmWSW (240°)20.4 km/hClear
3:15 PM24 °C9 °C38 %1021.7 hPa16.1 kmWSW (240°)11.1 km/h25.9 km/hClear
3:35 PM25 °C9 °C36 %1021.7 hPa16.1 kmSSW (200°)18.5 km/h25.9 km/hClear
3:55 PM24 °C9 °C38 %1021.3 hPa16.1 kmSSW (200°)22.2 km/hClear
4:15 PM24 °C9 °C38 %1021.3 hPa16.1 kmSSW (210°)14.8 km/hClear
4:35 PM24 °C9 °C38 %1021.3 hPa16.1 kmSSW (210°)14.8 km/h31.5 km/hClear
4:55 PM23 °C9 °C41 %1021 hPa16.1 kmSSW (210°)16.7 km/h25.9 km/hClear
5:15 PM23 °C9 °C41 %1021 hPa16.1 kmSSW (200°)22.2 km/h27.8 km/hClear
5:35 PM22 °C9 °C43 %1021 hPa16.1 kmSSW (200°)16.7 km/hClear
5:55 PM21 °C9 °C46 %1020.7 hPa16.1 kmSSW (200°)13 km/hClear
6:15 PM20 °C9 °C49 %1020.7 hPa16.1 kmSouth (190°)13 km/hClear
6:35 PM18 °C9 °C56 %1020.7 hPa16.1 kmSouth (190°)11.1 km/hClear
6:55 PM18 °C9 °C56 %1021 hPa16.1 kmSouth (180°)11.1 km/hClear
7:15 PM18 °C10 °C59 %1021.3 hPa16.1 kmSouth (190°)13 km/hClear
7:35 PM17 °C10 °C63 %1021.7 hPa16.1 kmSouth (170°)9.3 km/hClear
7:55 PM17 °C10 °C63 %1021.7 hPa16.1 kmSouth (180°)11.1 km/hClear
8:15 PM16 °C11 °C72 %1021.7 hPa16.1 kmSouth (190°)14.8 km/hClear
8:35 PM17 °C11 °C68 %1021.3 hPa16.1 kmSouth (190°)18.5 km/hClear
8:55 PM17 °C11 °C68 %1021 hPa16.1 kmSSW (200°)22.2 km/hClear
9:15 PM17 °C11 °C68 %1021 hPa16.1 kmSSW (200°)22.2 km/hClear
9:35 PM17 °C11 °C68 %1021 hPa16.1 kmSSW (200°)25.9 km/h33.3 km/hClear
9:55 PM16 °C11 °C72 %1021 hPa16.1 kmSSW (200°)22.2 km/h33.3 km/hClear
10:15 PM17 °C11 °C68 %1021.3 hPa16.1 kmSSW (210°)16.7 km/hClear
10:35 PM17 °C11 °C68 %1021.7 hPa16.1 kmSSW (210°)20.4 km/hClear
10:55 PM17 °C11 °C68 %1021.7 hPa16.1 kmSSW (210°)20.4 km/hClear
11:15 PM17 °C11 °C68 %1021.7 hPa16.1 kmSW (220°)24.1 km/hClear
11:35 PM17 °C11 °C68 %1021.7 hPa16.1 kmSW (220°)24.1 km/h37 km/hClear
11:55 PM17 °C11 °C68 %1021.7 hPa16.1 kmSW (220°)24.1 km/h35.2 km/hClear
Hourly data recorded from KMKN, located 0 kilometers away from Gorman, Texas







STORIES FROM OUR PARTNERS